Flag for U.S.A. Weather past 2 weeks in Annapolis, Maryland, U.S.A.

Now
43 °F

Overcast.


Feels Like: 40 °F
Forecast: 38 / 44 °F
Wind: 5 mph from North

Location: Annapolis - United States Naval Academy

Current Time: Dec 29, 2014 at 5:24:25 AM

Latest Report: Dec 29, 2014 at 4:54 AM


Visibility: 10 mi

Pressure: 30.14 "Hg

Humidity: 76%

Dew point: 36 °F

Location of AnnapolisLocation

Historic Weather in Annapolis — Graph

°F

Annapolis temperature yesterday

Maximum temperature yesterday: 56 °F (at 11:54 AM)
Minimum temperature yesterday: 43 °F (at 7:54 AM)
Average temperature yesterday: 47 °F

Past Weeks' High & Low Weather Summary

 TemperatureHumidityPressure
High64 °F (Dec 25, 1:54 AM)100% (Dec 23, 2:54 PM)30.37 "Hg (Dec 23, 2:54 PM)
Low30 °F (Dec 20, 4:54 AM)39% (Dec 25, 11:54 AM)29.56 "Hg (Dec 24, 11:54 PM)
Average42 °F76%30.08 "Hg
* Reported Dec 14 3:54 AM — Dec 29 3:54 AM, Annapolis, Weather by CustomWeather, © 2014

Note: Actual official high and low records may vary slightly from our data, if they occured in-between our weather recording intervals... More about our weather records

Advertising

Annapolis weather history for previous 24 hours

 ConditionsComfort  
Time TempWeatherWind HumidityBarometerVisibility
3:54 AM
Dec 29
42 °FOvercast.No wind85%30.15 "Hg10 mi
2:54 AM42 °FLight rain. Overcast.3 mph82%30.15 "Hg10 mi
1:54 AM42 °FLight rain. Mostly cloudy.5 mph85%30.14 "Hg8 mi
12:54 AM44 °FLight rain. Mostly cloudy.7 mph82%30.12 "Hg7 mi
11:54 PM
Dec 28
45 °FLight rain. Overcast.No wind86%30.11 "Hg10 mi
10:54 PM48 °FLight rain. Overcast.9 mph74%30.09 "Hg7 mi
9:54 PM50 °FLight rain. Overcast.6 mph80%30.08 "Hg10 mi
8:54 PM49 °FOvercast.5 mph90%30.04 "Hg10 mi
7:54 PM49 °FOvercast.6 mph93%30.03 "Hg9 mi
6:54 PM46 °FFog.No wind93%30.01 "Hg6 mi
5:54 PM46 °FLight rain. Mostly cloudy.6 mph89%30.01 "Hg10 mi
4:54 PM48 °FLight rain. Overcast.No wind86%30.01 "Hg7 mi
3:54 PM48 °FOvercast.3 mph86%29.98 "Hg10 mi
2:54 PM49 °FLight rain. Overcast.No wind77%29.96 "Hg10 mi
1:54 PM46 °FScattered clouds.6 mph83%29.95 "Hg10 mi
12:54 PM54 °FSunny.5 mph59%29.93 "Hg10 mi
11:54 AM56 °FScattered clouds.5 mph55%29.96 "Hg10 mi
10:54 AM46 °FPassing clouds.6 mph83%29.96 "Hg10 mi
9:54 AM46 °FBroken clouds.No wind79%29.98 "Hg10 mi
8:54 AM45 °FPartly sunny.No wind82%29.97 "Hg10 mi
7:54 AM43 °FPartly sunny.No wind89%29.97 "Hg10 mi
6:54 AM44 °FPassing clouds.No wind82%29.94 "Hg10 mi
5:54 AM45 °FMostly cloudy.No wind82%29.93 "Hg10 mi
Weather by CustomWeather, © 2014

See weather overviewHow to use our weather pages